Regional Weather Roundup
Issued by NWS

Home | Current Version | Previous Version | Graphics & Text | Print | Product List | Glossary On
Versions: 1 2 3 4 5 6 7 8 9 10 11 12 13 14 15 16 17 18 19 20 21 22 23 24 25 26 27 28 29 30 31 32 33 34 35 36 37 38 39 40 41 42 43 44 45 46 47 48 49 50
000
ASUS43 KDTX 060010
RWRMI
MICHIGAN HOURLY REGIONAL WEATHER ROUNDUP
NATIONAL WEATHER SERVICE DETROIT/PONTIAC MI
700 PM EST THU MAR 05 2015

NOTE: "FAIR" INDICATES FEW OR NO CLOUDS BELOW 12,000 FEET WITH NO
SIGNIFICANT WEATHER AND/OR OBSTRUCTION TO VISIBILITY.

MIZ047>049-052>055-059>063-066>070-074>076-081>083-060100-
SOUTHEAST LOWER MICHIGAN

CITY           SKY/WX    TMP DP  RH WIND       PRES   REMARKS
ADRIAN         CLEAR     16   1  51 CALM      30.46R
6HR MIN TEMP:  15; 6HR MAX TEMP:  19;

ALMA           CLOUDY    14   3  61 W6        30.45R WCI   5
6HR MIN TEMP:  13; 6HR MAX TEMP:  17;

ANN ARBOR      CLEAR     15  -1  49 NW5       30.45R WCI   8
BAD AXE        CLEAR      9  -3  60 SW7       30.42R WCI  -2
6HR MIN TEMP:   8; 6HR MAX TEMP:  12;

CARO           CLEAR      8  -3  60 SW3       30.43R
DETROIT CITY   CLEAR     16  -2  45 NW7       30.48R WCI   6
6HR MIN TEMP:  16; 6HR MAX TEMP:  21;

DETROIT        PTCLDY    16  -1  47 W6        30.48R WCI   7
6HR MIN TEMP:  16; 6HR MAX TEMP:  19;

FLINT          CLEAR     13  -2  51 SW5       30.45R WCI   5
6HR MIN TEMP:  11; 6HR MAX TEMP:  15;

GROSSE ILE     CLEAR     16  -2  45 NW7       30.46R WCI   6
HILLSDALE      CLEAR     15   2  54 CALM      30.42R
6HR MIN TEMP:  15; 6HR MAX TEMP:  19;

HOWELL         CLEAR     14  -2  50 CALM      30.43R
6HR MIN TEMP:  12; 6HR MAX TEMP:  15;


CITY           SKY/WX    TMP DP  RH WIND       PRES   REMARKS
JACKSON        CLEAR     13   0  56 NW3       30.43R
6HR MIN TEMP:  13; 6HR MAX TEMP:  17;

LAMBERTVILLE   CLEAR     18   1  49 CALM      30.48R
LANSING        CLEAR     11  -1  58 W7        30.45R WCI   0
6HR MIN TEMP:  11; 6HR MAX TEMP:  17; 6HR PCP: TRACE;

LAPEER         FAIR      11  -3  51 CALM      30.44R
MASON          CLEAR     14   0  54 NW5       30.44R WCI   6
MONROE         CLEAR     14   0  52 CALM      30.47R
MT. CLEMENS    CLEAR     14  -2  49 W8        30.45R WCI   3
6HR MIN TEMP:  14; 6HR MAX TEMP:  16;

PONTIAC        PTCLDY    12  -3  51 N3        30.43R
6HR MIN TEMP:  12; 6HR MAX TEMP:  14;

PORT HOPE        N/A      8  -6  52 S3        30.41R
6HR MIN TEMP:   8; 6HR MAX TEMP:  13;

PORT HURON     CLEAR      7  -6  56 CALM      30.47R
TRI CITIES     PTCLDY    12  -1  56 SW7       30.44R WCI   1
6HR MIN TEMP:  12; 6HR MAX TEMP:  17;

TROY           CLEAR     16  -3  42 CALM      30.48R
SAGINAW HB     CLEAR     12   0  57 SW5       30.44R WCI   4
$$
MIZ043>046-050>051-056>058-064>065-071>073-077>080-060100-
SOUTHWEST LOWER MICHIGAN

CITY           SKY/WX    TMP DP  RH WIND       PRES   REMARKS
BATTLE CREEK   CLEAR     15   1  53 NW8       30.45R WCI   4
6HR MIN TEMP:  15; 6HR MAX TEMP:  20;

BENTON HARBOR  CLOUDY    14   6  70 W7        30.50R WCI   4
6HR MIN TEMP:  14; 6HR MAX TEMP:  19; 6HR PCP: TRACE;

BIG RAPIDS     CLEAR     10   1  67 W6        30.42R WCI   1
6HR MIN TEMP:  10; 6HR MAX TEMP:  17;

COLDWATER      CLEAR     14   1  54 W6        30.44R WCI   5
6HR MIN TEMP:  14; 6HR MAX TEMP:  19;

FREMONT        FAIR      10  -1  61 W3        30.45S
HOLLAND        CLEAR     12   2  64 W3        30.49R
6HR MIN TEMP:  12; 6HR MAX TEMP:  19; 6HR PCP: TRACE;

GRAND RAPIDS   MOCLDY    13   3  64 W10       30.47R WCI   0
6HR MIN TEMP:  13; 6HR MAX TEMP:  19;

IONIA          FAIR      14   2  59 W8        30.44R WCI   3
KALAMAZOO      CLEAR     15   2  56 NW8       30.46R WCI   4
6HR MIN TEMP:  15; 6HR MAX TEMP:  20;

LUDINGTON      CLOUDY    13   3  63 W5        30.46R WCI   6
6HR MIN TEMP:  13; 6HR MAX TEMP:  16;

MARSHALL       CLEAR     14   1  55 W5        30.44R WCI   6
MOUNT PLEASANT MOCLDY    14   1  57 W6        30.43R WCI   5
6HR MIN TEMP:  14; 6HR MAX TEMP:  19;

MUSKEGON       CLOUDY    13   2  61 W5        30.48R WCI   5
6HR MIN TEMP:  12; 6HR MAX TEMP:  16; 6HR PCP: TRACE;

SOUTH HAVEN    CLOUDY    16   5  62 NW5       30.49R WCI   9
$$
MIZ016>042-060100-
NORTHERN LOWER MICHIGAN

CITY           SKY/WX    TMP DP  RH WIND       PRES   REMARKS
ALPENA         CLEAR      5  -3  69 SE6       30.40R WCI  -6
6HR MIN TEMP:   5; 6HR MAX TEMP:  17; 6HR PCP: TRACE;

BEAVER ISLAND  CLEAR      8  -2  65 SW6       30.39R WCI  -2
6HR MIN TEMP:   8; 6HR MAX TEMP:  11;

BELLAIRE       CLOUDY    11   2  67 CALM      30.43R
6HR MIN TEMP:  11; 6HR MAX TEMP:  14;

CADILLAC       CLOUDY     8   0  69 W7        30.36R WCI  -3
CHARLEVOIX     PTCLDY     7   2  80 CALM      30.44R
FRANKFORT      CLOUDY    13   6  73 SW5       30.43S WCI   5
GAYLORD        CLOUDY     7  -2  66 SW9       30.34R WCI  -7
6HR MIN TEMP:   6; 6HR MAX TEMP:  11; 6HR PCP: TRACE;

GRAYLING       CLOUDY    10   0  62 W3        30.38R
6HR MIN TEMP:  10; 6HR MAX TEMP:  14;

HARBOR SPRINGS CLOUDY     6  -1  75 CALM      30.40S
HOUGHTON LAKE  CLEAR      8  -2  63 W8        30.38R WCI  -4
6HR MIN TEMP:   8; 6HR MAX TEMP:  15;

MANISTEE       CLOUDY    12   1  62 SW6       30.44S WCI   3
OSCODA         CLEAR     10   1  67 CALM      30.39R
PELLSTON       CLEAR      7  -2  66 SW5       30.40R WCI  -2
6HR MIN TEMP:   7; 6HR MAX TEMP:  11; 6HR PCP: TRACE;

ROGERS CITY    CLEAR      9  -3  56 W5        30.40R WCI   1
TRAVERSE CITY  MOCLDY    10  -1  61 W3        30.42R
6HR MIN TEMP:  10; 6HR MAX TEMP:  13; 6HR PCP: TRACE;

$$
MIZ007>008-015-060100-
EASTERN UPPER MICHIGAN

CITY           SKY/WX    TMP DP  RH WIND       PRES   REMARKS
KINROSS        CLOUDY     7   0  72 NW3       30.37R
6HR MIN TEMP:   7; 6HR MAX TEMP:  18;

MACKINAC ISLAN CLEAR      6  -1  70 SW8G16    30.38R WCI  -6
6HR MIN TEMP:   6; 6HR MAX TEMP:   9;

NEWBERRY       CLEAR      6  -3  67 SW7       30.34R WCI  -6
S. S. MARIE    CLEAR      5  -4  66 NW5       30.36R WCI  -4
6HR MIN TEMP:   5; 6HR MAX TEMP:  13;

MUNISING         N/A      5  -4  66 CALM      30.34S
6HR MIN TEMP:   4; 6HR MAX TEMP:  14;

$$
MIZ004>006-011>014-085-060100-
CENTRAL UPPER MICHIGAN

CITY           SKY/WX    TMP DP  RH WIND       PRES   REMARKS
MANISTIQUE     CLEAR     12  -1  56 SW3       30.36R
ESCANABA       CLEAR     10   1  67 S10       30.37S WCI  -3
6HR MIN TEMP:  10; 6HR MAX TEMP:  12;

MENOMINEE      CLEAR     14  -8  37 SW7       30.38R WCI   4
6HR MIN TEMP:  10; 6HR MAX TEMP:  18;

SAWYER-GWINN   CLEAR     12  -8  40 SW6       30.28R WCI   3
$$
MIZ001>003-009>011-084-060100-
WESTERN UPPER MICHIGAN

CITY           SKY/WX    TMP DP  RH WIND       PRES   REMARKS
IRON MOUNTAIN  CLEAR     12 -10  36 SW6       30.29R WCI   3
6HR MIN TEMP:  10; 6HR MAX TEMP:  17; 6HR PCP: TRACE;

HOUGHTON       CLEAR      6  -7  54 W6        30.26S WCI  -4
6HR MIN TEMP:   6; 6HR MAX TEMP:  10;

COPPER HARBOR    N/A     10 -11  38 VRB5      30.28F WCI   2
6HR MIN TEMP:   9; 6HR MAX TEMP:  13;

IRONWOOD       CLEAR     12 -11  34 SW7       30.25F WCI   2
6HR MIN TEMP:   7; 6HR MAX TEMP:  14;

$$

ABBREVIATIONS USED IN REMARKS
   TC - TEMPERATURE IN CELSIUS
  WCI - WIND CHILL INDEX
   HX - HEAT INDEX
  VSB - VISIBILITY




USA.gov is the U.S. government's official web portal to all federal, state and local government web resources and services.